Regional Weather Roundup
Issued by NWS

Home | Current Version | Previous Version | Graphics & Text | Print | Product List | Glossary Off
Versions: 1 2 3 4 5 6 7 8 9 10 11 12 13 14 15 16 17 18 19 20 21 22 23 24 25 26 27 28 29 30 31 32 33 34 35 36 37 38 39 40 41 42 43 44 45 46 47 48 49 50

000
ASUS43 KMKX 020024
RWRWI

WISCONSIN REGIONAL WEATHER ROUNDUP
NATIONAL WEATHER SERVICE MILWAUKEE/SULLIVAN WI
700 PM CDT MON JUN 01 2015

NOTE: "FAIR" INDICATES FEW OR NO CLOUDS BELOW 12,000 FEET WITH NO
SIGNIFICANT WEATHER AND/OR OBSTRUCTIONS TO VISIBILITY.

WIZ001-002-006>008-014>016-023>028-020100-
NORTHWEST WISCONSIN

CITY           SKY/WX    TMP DP  RH WIND       PRES   REMARKS
SUPERIOR ARPT  PTSUNNY   46  32  57 NE10G18   30.19S
6HR MIN TEMP:  46; 6HR MAX TEMP:  51;

ASHLAND        SUNNY     53  41  63 N8        30.20R
6HR MIN TEMP:  53; 6HR MAX TEMP:  64;

HAYWARD        SUNNY     66  37  34 SE10      30.17S
6HR MIN TEMP:  64; 6HR MAX TEMP:  69;

SIREN          MOSUNNY   68  38  33 S9        30.15S
6HR MIN TEMP:  65; 6HR MAX TEMP:  69;

CUMBERLAND     SUNNY     63  43  48 S7        30.16S
RICE LAKE      SUNNY     67  38  33 S9        30.18S
6HR MIN TEMP:  63; 6HR MAX TEMP:  69;

CHETEK         SUNNY     67  42  41 SE8       30.17S
6HR MIN TEMP:  62; 6HR MAX TEMP:  68;

LADYSMITH      SUNNY     65  40  39 S9G16     30.20S
6HR MIN TEMP:  64; 6HR MAX TEMP:  68;

EAU CLAIRE     SUNNY     67  40  37 SE8       30.16S
6HR MIN TEMP:  63; 6HR MAX TEMP:  70;

MENOMONIE      SUNNY     67  39  35 SE8       30.17S
6HR MIN TEMP:  64; 6HR MAX TEMP:  69;

NEW RICHMOND   MOSUNNY   66  40  38 S10       30.16S
6HR MIN TEMP:  62; 6HR MAX TEMP:  67;

OSCEOLA        PTSUNNY   68  40  36 S13       30.17S
6HR MIN TEMP:  63; 6HR MAX TEMP:  69;

$$

WIZ003>005-009-010-017-018-020100-
NORTH CENTRAL WISCONSIN

CITY           SKY/WX    TMP DP  RH WIND       PRES   REMARKS
MANITOWISH WTR SUNNY     65  36  34 S8        30.19R
6HR MIN TEMP:  61; 6HR MAX TEMP:  67;

ARBOR VITAE    SUNNY     64  30  27 S10G16    30.19S
6HR MIN TEMP:  62; 6HR MAX TEMP:  68;

WOODRUFF       SUNNY     64  30  27 S10G16    30.19S
6HR MIN TEMP:  62; 6HR MAX TEMP:  68;

RHINELANDER    SUNNY     64  28  25 S7        30.21S
6HR MIN TEMP:  62; 6HR MAX TEMP:  67;

EAGLE RIVER    SUNNY     64  22  20 S7        30.20S
6HR MIN TEMP:  62; 6HR MAX TEMP:  67;

LAND O LAKES   SUNNY     66  25  21 S3        30.20S
6HR MIN TEMP:  64; 6HR MAX TEMP:  69;

PHILLIPS       MOSUNNY   65  38  38 S9        30.18S
6HR MIN TEMP:  62; 6HR MAX TEMP:  67;

TOMAHAWK       SUNNY     63  32  32 S3        30.21S
6HR MIN TEMP:  62; 6HR MAX TEMP:  66;

MEDFORD        SUNNY     61  40  45 SE6       30.20S
6HR MIN TEMP:  60; 6HR MAX TEMP:  64;

MERRILL        SUNNY     64  37  37 SE7       30.22S
$$

WIZ029-030-035-036-043>047-020100-
CENTRAL WISCONSIN

CITY           SKY/WX    TMP DP  RH WIND       PRES   REMARKS
WAUSAU         SUNNY     64  34  32 SE7       30.19F
6HR MIN TEMP:  62; 6HR MAX TEMP:  66;

MOSINEE        NOT AVBL
MARSHFIELD     SUNNY     65  35  33 SE8       30.20S
6HR MIN TEMP:  62; 6HR MAX TEMP:  67;

STEVENS POINT  SUNNY     62  34  35 E10       30.21F
6HR MIN TEMP:  59; 6HR MAX TEMP:  64;

WAUPACA        SUNNY     65  33  30 E6        30.22F
6HR MIN TEMP:  64; 6HR MAX TEMP:  68; 6HR PCP:  0.01;

WAUTOMA        MOSUNNY   64  33  31 E9        30.22F
6HR MIN TEMP:  64; 6HR MAX TEMP:  66;

WISC RAPIDS    SUNNY     65  29  25 SE8       30.21F
6HR MIN TEMP:  64; 6HR MAX TEMP:  68;

CAMP DOUGLAS   MOSUNNY   66  41  39 SE10      30.18F
$$

WIZ011>013-019>022-031-037>040-048>050-020100-
NORTHEAST WISCONSIN

CITY           SKY/WX    TMP DP  RH WIND       PRES   REMARKS
ANTIGO         SUNNY     60  40  47 S8        30.22S
SHAWANO        SUNNY     64  38  38 E7        30.23S
6HR MIN TEMP:  62; 6HR MAX TEMP:  67;

OCONTO         SUNNY     60  36  40 E5        30.23F
6HR MIN TEMP:  60; 6HR MAX TEMP:  63;

STURGEON BAY   SUNNY     59  30  33 NE6       30.26F
6HR MIN TEMP:  57; 6HR MAX TEMP:  61;

GREEN BAY      SUNNY     61  41  47 NE10      30.23F
6HR MIN TEMP:  61; 6HR MAX TEMP:  65;

MANITOWOC      SUNNY     57  34  41 NE8       30.24S
6HR MIN TEMP:  57; 6HR MAX TEMP:  60; 6HR PCP:  0.01;

APPLETON       MOSUNNY   63  30  29 E7        30.23S
CLINTONVILLE   SUNNY     63  36  36 SE6       30.23S
OSHKOSH        SUNNY     62  35  36 NE8       30.22S
6HR MIN TEMP:  60; 6HR MAX TEMP:  64;

$$

WIZ032>034-041-042-053>061-020100-
SOUTHWEST WISCONSIN

CITY           SKY/WX    TMP DP  RH WIND       PRES   REMARKS
LA CROSSE      SUNNY     70  35  27 E7        30.16S
6HR MIN TEMP:  67; 6HR MAX TEMP:  71;

SPARTA         SUNNY     67  35  29 E9        30.19R
6HR MIN TEMP:  65; 6HR MAX TEMP:  69;

VIROQUA        SUNNY     66  36  32 E9        30.19R
6HR MIN TEMP:  64; 6HR MAX TEMP:  68;

BOSCOBEL       SUNNY     69  36  29 CALM      30.17F
6HR MIN TEMP:  67; 6HR MAX TEMP:  72;

PRAIRIE DU CHI SUNNY     67  33  28 SE6       30.16S
6HR MIN TEMP:  65; 6HR MAX TEMP:  70;

PLATTEVILLE    SUNNY     67  40  38 E7        30.17F
6HR MIN TEMP:  64; 6HR MAX TEMP:  68;

$$

WIZ056-057-062-063-064-067-068-020100-
SOUTH CENTRAL WISCONSIN

CITY           SKY/WX    TMP DP  RH WIND       PRES   REMARKS
REEDSBURG      SUNNY     64  33  31 SE7       30.19S
6HR MIN TEMP:  62; 6HR MAX TEMP:  67;

BARABOO/DELLS  SUNNY     64  32  30 SE6       30.20R
6HR MIN TEMP:  61; 6HR MAX TEMP:  66;

LONE ROCK      SUNNY     68  30  24 E10       30.19S
6HR MIN TEMP:  64; 6HR MAX TEMP:  70;

MINERAL POINT  SUNNY     66  32  28 E7        30.19S
MADISON        MOSUNNY   63  29  27 E10       30.20S
6HR MIN TEMP:  62; 6HR MAX TEMP:  67;

MIDDLETON      SUNNY     65  27  23 SE9       30.20S
6HR MIN TEMP:  63; 6HR MAX TEMP:  68;

WATERTOWN      SUNNY     61  33  34 E7        30.21S
MONROE         SUNNY     63  34  34 E8        30.19R
JANESVILLE     SUNNY     64  30  27 E12       30.20R
$$

WIZ051-052-058>065-066-070>072-020100-
SOUTHEAST WISCONSIN

CITY           SKY/WX    TMP DP  RH WIND       PRES   REMARKS
MILWAUKEE      MOSUNNY   53  33  46 N13       30.23S
6HR MIN TEMP:  52; 6HR MAX TEMP:  56;

WAUKESHA       SUNNY     55  32  41 E8        30.23S
MILWAUKEE/TIMM SUNNY     55  30  38 NE10      30.23F
RACINE         SUNNY     52  35  52 N12       30.25R
6HR MIN TEMP:  52; 6HR MAX TEMP:  57;

BURLINGTON     SUNNY     56  33  40 NE8       30.22S
6HR MIN TEMP:  56; 6HR MAX TEMP:  60;

KENOSHA        SUNNY     55  34  45 NE12      30.22S
6HR MIN TEMP:  55; 6HR MAX TEMP:  61;

FOND DU LAC    SUNNY     62  35  36 E8        30.22S
6HR MIN TEMP:  61; 6HR MAX TEMP:  66;

SHEBOYGAN      SUNNY     56  37  49 NE10      30.23F
6HR MIN TEMP:  56; 6HR MAX TEMP:  59;

WEST BEND      SUNNY     59  34  38 E8        30.23S
JUNEAU         SUNNY     61  35  36 E8        30.22S
6HR MIN TEMP:  60; 6HR MAX TEMP:  64;

$$

LSZ147-162-020100-
LAKE SUPERIOR

STATION/POSITION TIME  TEMP    WIND        PRES    WAVE
                       AIR SEA DIR/SP/G            HT/PER
                 (UTC) (F)     (DEG/KT/KT) (MB)    (FT/S)
W MID LAKE BUOY  2350   40 37   40/ 10/ 10   N/A     0
DEVILS ISLAND    0000   44      80/ 12/ 13   N/A
PORT WING        2340   47      40/ 17/ 20   N/A
$$

LMZ867-665-643>646-020100-
LAKE MICHIGAN

STATION/POSITION TIME  TEMP    WIND        PRES    WAVE
                       AIR SEA DIR/SP/G            HT/PER
                 (UTC) (F)     (DEG/KT/KT) (MB)    (FT/S)
CHAMBERS ISLAND  2300   60      CALM  /  3   N/A
N MID LAKE BUOY  2350   47 37  310/  6/  6   N/A     0
NORTHPORT PIER   2300   59      CALM  /  2   N/A


USA.gov is the U.S. government's official web portal to all federal, state and local government web resources and services.